RH
14 14 14 13 13 12 12 12 12 13 13 14 14 14 13 12 12 11 10 10 10 10 9 8 7 7 7 7 7 6 6 6 7 8 8 9 8 8 7 7 7 7 8 8 9 8 7 10 13 15 15 22 31 32 33 39 51 48 49 65 64 58 65 66 55 32 23 47 45 29 67 101 85 55 62 87 71 51 52 51 47 39 24 13 13 11 11 12
15 14 15 14 14 14 13 13 12 12 12 12 13 14 14 14 13 12 11 11 11 11 10 9 8 8 7 7 7 7 7 6 7 8 8 8 8 9 8 7 8 7 8 8 9 9 7 9 12 15 15 20 29 31 31 35 45 47 55 71 63 63 85 87 66 37 31 42 36 35 57 78 68 49 72 92 68 52 50 43 45 44 32 19 13 11 11 12
15 14 14 14 14 14 14 14 13 12 12 12 12 12 13 14 14 13 13 12 11 11 11 11 10 8 8 7 7 7 7 7 7 8 7 8 9 9 9 8 9 8 8 9 9 9 7 8 11 14 15 18 26 29 30 30 39 46 53 67 60 70 95 94 75 48 36 35 30 29 39 65 62 52 85 94 67 58 52 39 37 43 40 24 14 13 11 12
14 14 14 14 14 14 13 14 13 13 13 12 12 11 12 12 13 14 13 13 12 12 11 11 11 9 9 7 8 7 7 7 7 7 6 8 9 8 9 8 9 9 9 8 8 9 7 8 11 14 15 17 24 26 27 27 34 39 48 77 74 62 77 81 73 55 37 29 25 20 36 68 58 64 100 91 71 62 51 43 32 39 45 29 17 14 11 12
15 15 14 14 14 14 13 13 13 13 13 12 12 12 12 11 12 12 13 14 13 13 12 12 12 10 10 8 8 8 7 8 7 7 6 8 8 9 9 8 9 9 9 9 8 9 8 9 9 13 15 17 22 23 25 24 30 35 48 86 86 67 79 80 67 54 38 27 28 25 42 68 52 72 109 91 79 62 46 48 34 38 49 35 21 14 13 14
16 16 15 15 14 14 14 13 13 12 12 11 12 11 12 11 11 11 11 12 13 13 13 12 12 11 11 10 9 8 8 8 8 7 7 7 7 9 10 9 9 9 9 8 8 9 9 9 9 13 15 16 21 21 22 22 25 32 40 60 69 71 77 71 63 56 41 27 32 34 44 62 45 68 108 88 75 62 50 54 36 38 52 41 25 15 15 15
17 17 16 16 15 15 13 13 13 12 12 11 11 10 10 11 11 11 11 11 11 12 13 12 13 12 12 11 10 9 8 8 8 7 7 7 7 8 9 10 9 9 9 8 7 9 9 9 9 11 15 17 19 20 22 22 21 25 31 39 52 69 70 68 70 63 55 40 35 36 40 56 47 60 87 66 63 71 62 55 39 38 51 44 27 17 16 17
18 17 16 16 14 14 13 13 13 12 12 11 11 10 9 10 9 10 10 10 10 10 12 12 13 12 12 12 11 10 9 9 8 8 7 6 7 7 9 9 9 9 8 8 8 8 10 10 10 10 15 19 19 20 21 21 21 21 25 33 44 63 68 71 73 65 69 61 47 44 44 55 56 60 66 53 69 84 66 53 40 36 49 47 30 19 18 20
17 16 16 15 14 14 14 13 13 12 12 12 11 11 10 9 9 9 9 10 10 9 10 11 12 12 12 12 12 12 10 9 8 8 8 7 7 7 8 9 9 9 8 9 8 8 10 10 11 10 13 20 20 19 20 20 21 20 22 28 38 56 63 68 73 66 67 70 65 59 53 55 63 67 58 53 76 85 64 47 37 35 47 48 33 22 21 23
17 16 15 15 14 14 13 13 12 12 12 11 11 11 10 10 9 9 9 9 10 10 9 9 11 11 12 12 12 13 11 10 9 8 8 8 7 7 8 9 9 9 9 9 9 8 9 11 11 11 11 18 20 18 19 20 19 21 21 22 32 51 60 61 69 69 58 62 72 71 62 58 66 66 50 56 83 82 57 40 34 36 45 49 39 25 23 27
16 16 15 14 14 13 13 12 12 11 11 11 11 11 11 10 10 9 9 9 9 9 10 9 9 10 11 11 12 12 12 11 10 9 8 8 8 7 7 8 9 9 9 9 9 9 9 11 11 11 11 14 19 18 18 19 19 20 20 21 26 43 58 57 63 72 61 52 61 71 70 68 68 56 42 67 95 79 49 36 35 38 44 51 42 27 26 30
16 16 16 15 15 14 13 12 12 11 11 11 11 11 11 10 10 10 9 9 9 9 9 10 9 9 9 10 12 12 12 12 11 10 9 8 8 8 7 7 8 9 9 9 9 9 9 11 11 12 12 12 17 18 18 18 19 19 19 21 21 33 52 56 58 68 64 53 53 65 76 76 68 59 61 85 100 79 53 39 34 39 49 53 44 31 28 33
18 18 17 17 16 15 14 13 12 12 11 11 11 11 10 10 10 10 10 9 9 9 9 10 9 9 8 9 11 11 12 12 12 11 10 9 8 8 7 7 8 8 9 9 9 10 10 10 11 12 12 12 14 16 18 16 17 18 18 19 19 28 41 51 67 76 68 57 54 63 77 79 73 83 95 95 87 66 50 45 38 42 52 54 45 32 31 38
20 19 18 18 17 15 15 13 12 11 11 11 10 10 9 9 9 9 10 9 10 9 9 9 9 9 8 8 10 10 12 11 12 12 11 10 9 9 8 7 7 8 9 9 9 10 10 10 10 12 12 11 12 14 17 16 17 17 16 20 19 23 30 42 74 93 87 81 77 71 75 84 91 99 97 89 89 66 47 50 44 44 52 53 45 32 34 44
20 20 18 17 16 15 14 13 12 11 11 10 9 9 8 8 8 8 9 9 9 9 9 9 9 9 8 8 9 9 11 11 12 12 12 12 10 9 8 8 7 7 9 9 9 10 10 10 9 11 12 11 12 14 15 16 21 19 16 22 21 26 36 37 59 86 95 99 96 82 79 91 99 99 82 76 99 89 67 63 48 47 55 51 45 34 35 47
20 19 17 16 15 14 13 12 11 10 10 9 8 8 8 8 8 8 8 8 9 9 9 9 9 9 9 9 8 9 10 10 12 12 12 12 11 10 8 9 8 7 8 9 10 10 10 10 9 11 11 11 12 13 15 15 23 22 18 26 22 28 41 35 52 85 97 100 98 91 95 99 98 102 82 63 88 102 93 80 57 55 60 51 45 35 36 48
19 18 17 17 16 15 14 12 11 10 9 9 8 8 8 8 7 7 7 8 8 9 9 9 9 9 9 9 8 9 9 9 11 11 12 12 12 12 9 9 8 8 8 8 10 10 10 10 10 11 10 12 11 11 14 13 18 18 17 32 25 21 33 25 35 64 83 97 99 99 102 97 95 104 89 62 74 99 101 87 72 70 64 53 46 36 36 46
19 18 18 17 16 15 14 12 11 10 10 9 9 8 8 8 7 8 7 7 8 8 9 9 9 9 9 9 9 10 10 9 10 11 12 12 12 12 11 10 8 8 8 8 10 10 10 10 10 11 10 12 11 11 14 12 18 19 18 37 33 23 31 32 40 50 63 79 85 97 103 89 91 101 94 74 68 88 103 92 87 87 68 52 47 39 37 43
19 18 18 17 16 15 13 12 11 11 10 10 9 8 7 7 7 7 7 8 8 7 8 9 9 10 9 10 10 10 10 9 9 10 11 11 12 12 12 11 9 9 9 8 9 10 10 10 10 11 10 11 11 11 14 11 18 24 20 28 29 23 25 42 75 77 62 65 69 91 105 87 90 100 96 87 71 77 100 95 87 88 71 54 47 39 38 43
19 18 18 17 16 15 13 12 12 11 11 10 9 8 7 7 6 7 7 8 8 8 8 8 9 10 10 10 10 11 11 10 10 9 11 11 12 12 12 13 10 9 9 9 9 9 10 10 9 11 10 11 11 11 14 12 14 18 18 19 20 29 31 42 86 95 63 57 63 81 101 93 94 102 93 87 76 70 91 99 86 82 72 56 47 41 40 43
19 19 18 18 16 15 14 13 12 12 12 10 9 8 7 7 7 7 7 7 8 8 8 8 9 9 11 11 11 11 11 12 11 9 10 11 11 12 11 13 12 10 9 9 10 9 9 10 9 11 11 10 11 10 12 14 14 13 17 20 15 26 36 30 61 92 78 73 82 86 103 101 94 102 90 79 80 69 78 100 94 83 74 58 49 45 43 44
19 20 20 19 17 16 15 14 13 13 12 10 9 9 9 9 9 8 7 7 7 8 9 9 9 9 10 12 12 12 12 12 13 11 9 10 11 11 11 12 13 12 10 9 10 9 9 10 9 10 11 10 10 11 11 12 16 14 14 19 16 17 25 19 26 55 66 80 99 99 103 95 80 96 92 75 86 82 74 91 96 87 74 58 53 50 47 48
20 21 22 20 19 17 16 16 15 14 13 11 11 11 12 12 11 11 10 9 8 8 8 9 10 10 9 11 12 12 13 13 14 12 10 9 10 11 11 12 12 13 13 10 9 10 9 9 10 9 10 11 10 9 11 11 13 17 13 15 24 20 17 19 15 21 33 53 85 102 100 78 58 83 99 86 95 100 88 87 90 87 75 58 53 54 51 51
22 24 24 23 21 19 18 18 17 16 14 13 14 14 15 15 14 14 13 11 10 9 8 8 9 10 10 10 11 12 13 13 13 14 10 9 10 11 11 11 12 13 14 13 10 9 10 9 9 9 9 10 11 9 10 12 11 15 16 13 24 26 17 19 18 16 20 26 59 99 102 74 52 68 97 100 96 96 96 95 87 78 69 57 52 54 55 54
25 26 26 25 23 21 21 21 20 17 15 15 17 18 19 20 19 17 16 14 13 11 10 9 9 10 11 11 11 11 12 13 13 14 12 9 9 10 11 11 12 12 13 14 12 9 9 9 8 8 9 9 11 11 9 11 11 12 16 14 17 22 18 19 19 18 21 19 42 92 107 87 66 60 73 84 79 78 89 94 84 70 61 58 55 54 56 56
28 28 28 27 25 24 23 24 22 18 17 18 20 23 24 24 24 22 19 17 16 14 12 11 10 10 11 11 12 11 11 12 13 14 13 10 9 10 11 11 11 12 12 14 13 10 9 9 9 8 9 9 9 11 10 9 11 11 13 15 15 18 18 20 20 19 30 29 33 76 105 94 80 65 60 70 74 79 90 89 79 71 64 59 56 55 56 57
30 30 30 28 26 26 26 27 25 19 19 21 24 28 29 29 29 27 24 21 18 17 16 14 12 11 11 11 12 12 12 12 13 14 14 11 10 10 11 11 11 11 12 13 13 13 10 9 10 9 8 10 9 10 11 9 11 11 11 14 14 17 19 22 21 19 33 37 29 63 100 97 91 79 70 88 98 93 97 91 81 82 79 66 60 56 50 51
32 32 32 30 28 27 29 30 26 21 21 23 27 33 35 34 33 32 29 25 22 20 19 17 14 12 12 11 12 12 12 13 13 14 14 12 11 10 10 11 11 12 12 12 13 13 12 9 9 10 8 9 9 9 10 10 10 10 10 13 12 16 21 22 23 22 35 45 34 54 93 100 100 93 78 92 105 100 102 98 88 93 89 66 59 60 50 48
34 34 34 31 29 28 31 33 28 22 23 26 29 37 41 41 39 37 35 30 27 24 21 20 17 14 13 12 12 12 12 13 14 15 15 12 11 10 10 11 11 12 12 11 12 12 13 11 9 10 9 9 9 8 10 10 10 11 9 11 12 14 19 19 19 21 38 56 42 42 79 99 101 100 88 84 89 96 99 93 90 99 96 69 58 76 79 72
36 37 36 33 31 31 33 35 30 23 24 27 32 40 45 46 46 43 40 36 32 28 25 22 20 17 15 14 13 13 13 13 14 16 16 14 12 11 10 11 11 13 13 11 11 12 12 13 11 10 9 9 9 8 9 9 9 11 10 10 12 12 16 17 17 17 27 48 45 34 57 90 101 101 98 90 85 90 86 80 89 101 106 89 66 83 102 97
38 38 37 35 34 33 34 37 31 24 26 28 33 42 48 50 52 50 46 43 40 36 29 25 23 20 17 15 14 14 14 15 16 18 18 15 14 13 11 12 12 13 14 12 12 13 13 13 14 12 10 10 10 9 9 9 9 11 10 10 11 11 14 16 17 19 18 30 44 37 36 62 88 95 99 100 93 93 84 76 90 102 108 103 74 72 98 104
40 40 39 38 38 36 36 39 33 24 27 31 33 44 51 53 55 56 53 51 51 47 39 31 26 22 20 17 15 16 15 15 17 18 19 18 15 14 13 12 13 13 14 13 13 14 13 13 14 15 13 10 10 10 9 9 9 10 10 11 11 10 12 14 16 20 19 20 32 37 31 38 57 67 79 96 99 97 85 73 87 103 106 108 87 66 82 103
41 41 41 41 41 39 38 40 34 25 28 32 34 45 54 56 58 60 58 57 59 59 50 40 32 25 23 20 17 17 16 16 18 18 20 19 17 16 14 13 14 15 14 12 13 13 12 13 13 15 16 13 11 10 10 10 9 10 10 11 12 11 11 13 15 19 20 19 20 27 31 32 36 39 47 75 98 103 92 75 83 102 103 105 98 73 75 99
41 42 43 44 44 41 40 41 34 26 29 33 35 46 58 60 59 60 61 63 67 67 62 53 43 32 25 23 20 18 17 17 18 19 20 20 19 17 16 15 15 15 15 13 13 14 12 12 13 13 16 17 14 10 10 10 10 10 11 11 12 12 11 11 13 17 19 20 18 19 26 29 30 34 37 55 84 102 102 83 75 93 103 102 100 84 77 95
42 43 45 46 45 42 41 42 35 26 30 34 36 47 62 64 63 62 61 65 70 73 72 66 57 45 32 25 23 20 19 18 18 19 20 20 20 19 17 17 16 14 15 15 14 14 13 13 13 13 15 17 16 12 10 10 10 9 10 10 12 12 12 12 11 14 18 21 21 18 23 31 30 33 38 43 60 88 106 93 72 83 102 99 99 96 84 91
43 46 47 46 46 43 42 43 36 27 30 36 37 48 64 68 67 67 65 65 68 73 78 77 71 62 47 33 26 23 20 19 19 19 20 21 21 21 19 18 18 16 16 15 14 15 14 14 15 15 15 16 17 14 11 10 10 10 9 9 12 12 12 13 10 12 16 21 25 21 21 31 30 30 40 39 43 72 103 103 85 85 100 102 103 104 91 87
45 48 49 47 46 44 43 43 36 28 31 37 38 46 62 70 69 69 68 67 67 70 75 80 81 78 67 50 34 27 24 21 20 20 20 20 20 21 21 20 20 18 17 16 15 16 15 14 17 18 16 15 16 16 13 11 9 9 10 9 10 12 12 13 11 11 14 14 20 24 23 30 32 31 44 45 43 65 91 101 100 96 101 107 106 102 90 83
48 50 49 48 46 44 44 43 36 29 31 37 38 43 59 71 72 71 71 69 67 68 68 72 77 80 80 71 53 37 28 24 23 22 21 21 20 21 22 22 21 20 19 17 16 16 16 16 18 19 19 16 15 16 15 13 10 9 10 9 9 11 11 12 11 11 13 11 14 21 24 32 33 27 36 43 43 57 70 78 95 102 101 103 101 95 94 95
51 51 50 47 45 44 44 43 36 30 32 38 39 42 56 70 73 71 72 70 67 67 66 65 68 70 75 78 72 58 42 31 26 24 24 22 21 21 21 21 22 21 21 20 18 17 16 17 18 19 20 18 14 15 16 15 12 9 10 9 10 11 10 11 12 11 12 12 13 16 21 30 32 23 29 39 38 44 52 54 70 91 96 94 88 80 89 104
53 52 50 46 45 44 44 43 36 30 34 39 40 43 55 70 75 72 71 71 68 66 66 65 64 64 65 69 74 73 63 48 35 28 26 25 23 22 21 21 22 21 22 21 20 19 17 17 18 18 19 20 16 15 15 16 15 11 10 10 10 11 10 10 11 12 12 12 13 14 17 25 31 26 27 33 30 30 37 37 43 63 78 82 82 77 82 99
54 52 49 45 44 44 44 43 37 32 35 41 42 47 57 69 77 76 72 70 68 66 64 63 62 61 61 61 64 69 71 65 52 38 30 27 26 25 23 22 22 21 22 22 21 21 19 16 17 18 20 21 19 15 14 15 16 14 12 10 10 10 10 11 10 11 12 13 13 13 14 19 26 24 21 24 26 25 29 31 31 42 57 67 76 84 89 96
55 51 47 44 44 45 44 42 36 33 37 42 44 49 59 70 77 79 75 70 68 66 63 62 60 57 56 55 54 57 62 66 65 55 41 31 29 28 25 24 24 22 22 23 23 22 20 17 16 17 19 20 19 17 15 14 16 18 15 12 11 10 10 11 10 11 12 13 13 13 13 15 20 23 21 20 22 22 23 26 26 30 41 51 61 78 95 100
55 50 45 43 44 45 44 41 37 35 39 44 46 51 60 71 79 83 81 74 68 66 64 63 61 58 55 52 50 49 50 54 61 63 54 40 31 29 29 27 25 24 23 24 24 23 21 19 17 17 18 18 19 20 18 14 15 18 17 14 11 10 10 10 10 10 11 12 13 14 14 15 18 22 23 20 21 22 20 21 22 23 28 36 43 58 82 99
53 47 44 43 44 45 43 40 37 37 42 46 49 53 63 75 85 88 85 77 69 64 63 62 60 57 53 49 46 43 42 43 48 54 57 50 38 30 30 30 28 27 26 25 26 25 23 22 18 18 19 18 20 21 20 17 15 16 17 16 13 11 10 10 10 10 10 10 11 13 14 16 20 20 18 17 21 24 22 19 20 22 24 26 30 40 60 85
50 45 43 43 44 45 42 38 36 39 44 48 50 54 64 78 89 91 84 76 69 65 63 61 57 52 48 44 41 39 38 37 38 42 49 52 47 37 30 30 30 29 27 26 27 26 25 23 19 19 20 19 19 21 21 19 16 14 16 17 16 14 11 10 11 11 11 11 11 12 13 16 19 19 16 14 17 21 23 21 19 21 22 21 23 29 39 60
47 44 43 43 44 44 41 36 36 40 47 50 51 53 62 77 89 91 84 76 71 67 65 61 55 50 45 41 39 37 35 33 32 34 37 43 47 44 36 31 30 30 29 28 28 28 27 24 21 20 20 19 19 19 20 20 18 16 16 17 18 17 14 12 11 10 11 12 12 12 13 15 18 18 16 14 15 18 20 21 20 19 20 20 20 23 27 36
45 44 43 43 44 42 38 36 36 43 50 54 55 57 63 76 89 95 89 81 75 70 66 62 56 50 46 41 38 35 33 32 30 29 31 33 38 42 42 36 32 31 30 30 30 31 30 28 25 24 22 19 18 17 18 19 18 16 14 16 18 18 16 14 12 11 11 11 12 13 13 15 16 17 17 15 13 15 18 20 22 22 21 21 20 20 22 23
44 44 43 43 43 40 37 35 37 44 54 60 61 61 66 76 90 98 95 86 79 74 69 64 58 51 46 42 38 34 31 30 28 27 27 28 31 36 40 41 38 34 32 32 32 32 35 33 29 28 26 22 19 17 17 17 17 16 14 13 15 17 18 17 14 13 12 11 12 12 12 15 17 16 19 19 14 12 14 16 20 23 23 23 21 20 21 21
44 43 43 43 42 38 36 35 38 45 55 64 67 66 67 75 88 98 99 92 85 78 72 67 61 53 47 43 39 35 31 28 26 25 25 26 27 30 33 38 40 39 35 33 33 34 37 35 29 30 29 25 21 19 17 17 17 17 15 13 13 15 17 18 17 15 13 11 12 12 13 19 23 18 17 20 17 13 14 15 17 20 22 23 23 21 20 19
44 43 43 42 39 37 36 36 39 46 54 63 70 70 68 73 84 95 99 97 90 83 77 72 65 55 49 45 41 36 32 28 24 22 22 23 25 28 29 32 37 40 40 37 34 34 39 37 31 32 34 30 27 23 19 18 18 18 18 16 14 14 15 18 18 16 15 13 12 12 13 18 23 21 16 15 15 14 15 16 16 17 19 21 22 21 20 20
44 43 42 41 37 35 37 39 41 47 54 63 71 73 68 69 79 92 101 101 95 88 82 77 70 59 51 47 43 39 33 28 24 22 21 21 23 26 28 29 32 37 42 44 40 39 46 43 33 33 38 36 33 29 25 22 19 19 20 20 16 14 14 16 19 19 17 15 13 12 12 13 16 21 20 16 14 14 15 16 17 18 17 18 19 18 18 20
44 42 41 39 36 35 38 41 44 49 55 64 73 75 70 67 74 89 101 104 99 93 87 82 75 65 56 50 46 41 35 29 25 24 23 22 22 23 26 29 31 33 38 45 48 51 55 48 36 36 40 37 34 34 31 27 26 26 25 23 20 16 14 14 17 20 20 18 16 14 15 16 15 17 21 19 15 14 15 15 17 19 19 17 16 15 15 17
Wind_Speed
22 23 23 23 24 24 24 24 24 25 26 27 27 27 27 26 25 24 23 22 21 23 25 28 30 33 34 36 37 38 39 39 39 39 40 41 42 43 43 43 42 42 41 41 41 41 41 40 40 40 38 36 35 32 30 29 28 25 22 18 16 16 17 17 17 16 15 10 9 8 6 3 4 4 7 6 8 14 18 20 20 20 20 21 23 23 23 23
23 23 24 25 26 26 26 26 26 26 26 27 28 28 29 29 28 28 26 25 24 23 24 26 29 32 34 36 38 39 39 40 40 41 42 41 41 43 44 44 44 43 42 43 43 43 43 42 41 42 40 38 37 34 32 30 28 27 25 22 19 18 17 18 19 18 16 12 10 9 7 4 3 3 6 3 9 13 14 17 19 19 20 20 21 22 22 23
24 25 26 26 27 28 28 28 28 28 28 28 28 29 30 30 30 30 29 29 27 26 26 26 28 31 34 36 38 39 40 41 41 43 43 41 42 43 45 45 44 44 44 45 45 44 44 43 43 43 42 40 38 36 33 31 29 28 27 24 23 22 19 18 19 18 17 14 11 11 8 5 4 4 5 2 8 11 12 14 16 17 19 19 20 21 22 23
26 27 27 28 29 29 30 30 30 30 30 30 30 30 30 31 32 32 32 32 31 30 29 28 28 29 32 35 38 39 41 41 42 45 44 42 43 44 45 46 45 45 46 47 46 45 44 44 44 45 44 42 40 37 34 32 31 30 28 25 26 26 22 21 21 19 18 15 13 12 9 7 5 5 4 4 7 10 10 11 12 15 17 18 19 20 21 23
28 29 30 30 31 32 32 33 33 33 33 32 32 32 32 33 33 34 35 34 34 33 32 31 30 30 31 34 37 39 41 41 43 46 45 44 45 44 45 46 46 47 47 47 47 46 45 45 46 46 46 44 42 39 36 34 33 33 32 29 28 27 24 24 24 21 20 17 14 13 10 9 7 5 3 3 6 9 9 9 10 13 16 17 18 18 20 22
31 32 33 33 34 35 36 37 37 37 37 37 36 36 35 35 35 36 37 37 37 36 35 34 33 32 32 33 36 39 41 42 45 47 46 46 46 45 45 47 48 48 49 48 48 47 47 46 47 47 47 46 44 41 39 37 35 35 35 34 31 29 26 25 25 22 20 19 16 15 12 10 8 5 4 4 7 9 8 7 8 11 14 16 16 17 19 21
33 34 35 36 37 38 39 40 41 42 42 43 42 41 40 39 39 39 39 40 40 39 38 37 36 35 34 34 35 38 40 43 46 47 47 48 47 46 47 48 49 49 49 49 49 49 48 47 48 48 48 47 46 44 41 39 37 35 35 35 35 32 28 24 24 23 20 19 18 16 13 11 9 6 6 8 8 7 7 6 7 10 12 15 15 16 18 20
35 36 37 38 40 41 42 43 44 45 46 47 47 46 45 43 42 41 42 42 42 42 42 41 40 39 38 36 36 37 40 43 46 48 48 49 49 48 48 49 49 50 50 50 50 49 49 49 49 49 50 49 49 47 44 41 38 37 36 36 36 34 30 25 24 25 22 19 18 16 14 12 10 8 7 8 7 6 6 5 6 9 10 13 14 15 17 19
36 37 39 40 42 43 44 45 46 47 48 49 50 50 50 48 46 44 44 44 44 45 45 45 44 42 41 39 38 37 39 43 46 48 49 51 50 50 50 50 50 50 50 51 51 51 51 51 50 51 51 51 51 49 47 43 40 38 37 37 36 34 32 26 24 25 24 21 19 16 15 13 11 10 9 8 7 4 5 4 5 8 9 11 12 14 16 18
38 39 41 42 44 45 46 48 48 49 50 51 52 52 53 52 51 48 47 46 46 47 47 48 47 46 44 43 40 39 40 43 45 47 50 51 52 52 51 51 51 50 51 51 52 52 52 53 52 52 53 52 51 51 49 46 43 40 38 37 35 34 33 28 24 24 25 23 21 18 16 14 12 11 8 7 7 5 5 4 4 6 8 9 11 12 15 17
40 41 42 44 46 48 49 50 50 51 51 51 52 53 54 55 54 52 50 49 48 48 49 50 51 50 48 46 43 41 42 43 44 47 49 52 53 53 53 52 52 51 51 51 52 52 53 55 55 53 54 54 53 53 52 49 46 42 40 38 35 34 34 30 25 24 24 24 23 19 17 15 14 12 8 7 8 7 5 4 3 5 6 7 9 10 13 16
43 44 45 47 49 51 52 52 52 52 51 51 52 53 54 56 57 56 54 51 50 50 51 52 53 53 51 49 46 45 45 44 45 47 49 51 53 54 54 53 53 52 52 52 52 53 55 57 57 55 55 55 54 54 53 51 48 44 42 39 36 34 33 30 27 25 23 23 23 20 17 16 15 13 10 10 10 8 7 4 2 3 4 5 6 8 11 15
46 47 49 51 53 54 55 55 55 54 53 52 52 53 54 56 57 57 56 54 52 52 52 53 54 55 55 52 49 49 48 47 46 47 48 50 52 55 55 55 54 54 53 53 52 54 56 58 58 57 57 56 56 55 55 53 50 47 43 40 37 34 31 30 29 28 25 23 23 22 19 18 16 15 14 13 10 9 8 5 2 1 2 2 4 6 9 13
49 51 53 55 57 58 59 58 57 55 54 53 53 53 54 55 57 58 57 56 55 54 54 55 56 57 57 55 54 53 51 50 49 47 47 49 52 54 56 56 56 55 55 54 54 55 57 59 60 60 59 58 58 56 55 54 52 49 44 41 38 33 31 33 33 29 25 23 23 22 20 19 17 17 16 13 12 10 9 7 5 3 2 1 2 5 8 11
52 54 56 59 61 61 61 59 58 56 55 54 54 53 53 55 57 58 58 58 57 56 56 56 57 58 59 58 57 56 54 53 51 49 48 49 51 54 56 57 57 57 56 55 55 55 56 59 61 62 61 60 59 57 56 55 52 50 46 42 40 37 37 38 37 33 27 25 23 20 20 20 19 19 18 16 14 13 13 10 8 6 4 3 1 4 6 9
55 57 60 62 63 63 62 60 58 57 56 55 54 52 52 53 55 57 59 59 59 59 58 58 59 59 60 60 60 58 57 55 53 51 50 50 51 53 55 57 58 59 58 57 56 56 56 57 60 64 64 62 61 59 58 56 54 52 48 45 44 43 42 41 38 35 30 26 23 22 21 21 21 19 19 19 16 14 17 14 11 8 7 5 3 4 5 7
58 60 62 63 64 64 63 61 60 59 58 56 54 51 50 51 53 56 58 60 61 61 60 60 60 61 61 62 61 59 58 58 56 54 52 52 52 53 55 57 60 60 60 59 57 57 57 57 60 63 65 64 63 61 60 59 56 55 52 49 48 45 41 41 39 36 33 30 25 23 25 26 26 23 20 21 19 15 17 16 12 9 8 7 4 3 3 5
60 62 63 64 65 64 64 63 61 60 58 56 53 50 48 48 50 54 57 60 62 63 62 61 61 62 62 62 62 61 60 60 59 58 56 55 54 54 55 57 60 61 61 60 58 58 58 59 60 62 65 65 64 64 62 61 59 56 55 52 49 46 42 41 40 39 38 35 30 27 29 30 29 26 22 23 22 17 16 15 12 10 10 8 5 3 1 2
61 62 63 65 65 65 64 63 62 60 58 55 51 47 45 45 47 51 55 59 62 64 65 64 63 63 64 64 64 63 62 61 61 61 60 58 57 56 56 57 60 62 62 61 60 60 61 61 60 60 64 67 67 65 63 63 61 58 58 57 53 49 46 43 41 42 42 38 35 33 32 31 30 28 24 23 24 20 17 17 14 12 12 10 7 4 2 1
62 63 64 65 65 65 64 63 62 60 58 54 49 45 42 42 44 47 53 58 63 66 67 67 66 65 65 65 65 65 64 63 63 64 63 62 60 58 57 57 59 62 63 62 62 62 63 63 63 62 64 68 69 66 64 63 62 61 61 60 57 52 51 49 42 41 43 40 38 36 34 32 30 29 26 24 24 23 19 19 18 15 14 12 8 6 4 2
63 64 65 66 66 65 64 63 62 60 57 52 46 41 39 38 40 43 48 54 61 67 70 71 70 69 69 68 67 66 65 64 64 65 66 65 63 61 59 57 58 60 62 63 63 65 65 64 65 65 64 66 68 68 66 64 63 63 63 61 61 58 56 55 49 43 43 41 38 36 36 34 30 29 28 25 25 25 22 20 20 18 16 13 10 8 7 5
64 65 66 67 66 66 65 64 62 60 55 49 43 39 36 34 35 38 43 48 56 63 70 74 74 74 73 72 70 69 68 67 65 67 69 68 66 63 61 59 58 59 61 63 65 66 66 66 67 66 64 64 68 70 69 66 64 64 64 62 62 61 59 59 57 51 47 42 36 34 35 35 32 30 29 28 28 27 24 22 20 19 17 14 12 11 9 7
64 66 67 67 67 66 66 65 63 59 53 46 40 36 33 31 31 33 37 42 49 56 65 73 77 78 77 76 75 73 71 70 69 69 71 71 69 66 64 62 60 59 60 63 66 68 69 69 68 67 65 64 66 70 71 69 67 65 64 64 62 62 62 60 58 56 52 45 39 35 35 36 35 31 29 30 30 28 26 24 21 19 17 15 15 13 10 8
65 66 68 68 68 68 67 66 64 59 51 43 37 33 30 28 27 28 31 36 42 49 57 66 74 79 80 79 78 77 75 74 72 71 72 72 72 70 67 64 62 61 61 63 66 69 70 70 69 68 67 65 65 69 72 71 70 67 66 66 64 63 63 61 58 57 55 51 44 37 36 38 38 35 32 31 30 29 27 24 22 20 17 17 17 16 13 10
65 67 68 69 69 69 69 68 65 57 47 40 34 30 27 25 24 24 26 30 36 42 49 58 66 74 80 82 81 80 79 77 75 73 73 74 74 72 69 66 65 64 62 62 66 69 69 69 70 70 69 68 67 67 71 73 72 70 69 68 67 65 64 63 60 58 56 53 49 39 35 38 40 39 38 36 34 32 29 26 24 21 19 20 19 17 14 11
66 68 69 69 70 71 71 70 65 56 45 37 32 28 25 23 22 21 22 25 30 36 43 50 58 67 75 81 83 83 82 81 78 76 75 74 75 74 72 70 68 65 63 64 65 67 68 69 71 70 69 69 69 68 69 73 74 73 71 70 68 66 66 64 60 59 54 51 52 46 37 36 40 41 38 37 36 33 31 29 26 24 22 22 21 18 16 13
66 69 70 70 70 72 73 72 65 54 42 34 29 26 24 22 19 19 19 22 26 31 37 44 51 60 68 76 82 84 84 83 81 79 77 76 76 76 75 72 69 67 66 65 65 65 67 71 71 71 71 70 70 70 69 71 75 75 73 72 70 68 67 65 61 60 55 53 56 55 46 38 38 42 38 36 36 33 33 32 29 26 25 23 22 20 17 15
67 69 70 70 71 73 75 73 66 53 40 33 27 24 23 21 18 16 17 19 21 26 32 38 45 53 61 69 77 82 84 85 83 81 79 78 77 78 77 75 72 70 68 67 66 65 68 71 71 72 73 72 72 71 70 71 73 75 75 73 72 70 69 67 65 63 60 60 62 62 57 47 41 43 44 41 39 36 35 34 30 28 27 26 24 22 20 19
67 70 71 71 72 74 76 74 66 52 39 31 26 22 21 19 17 15 15 16 18 22 28 34 40 47 55 63 71 78 83 85 84 83 81 79 78 78 78 76 74 72 70 69 67 65 66 68 69 70 72 72 72 72 72 72 71 73 76 75 74 72 71 69 69 68 66 65 66 66 64 56 46 44 46 46 43 40 38 35 33 31 31 30 27 25 25 25
68 70 71 71 72 75 77 75 66 51 38 30 24 21 19 17 16 15 13 14 15 19 23 30 36 42 50 58 66 74 81 84 84 84 83 80 79 78 78 77 76 74 73 71 67 64 65 65 65 68 70 71 72 72 73 73 70 71 75 76 75 74 73 71 71 72 70 67 67 68 68 63 55 48 47 48 47 43 41 39 37 36 35 33 31 28 28 28
69 71 71 72 74 76 77 75 65 50 37 29 23 19 17 16 15 14 13 12 13 16 20 25 31 38 45 53 62 70 78 82 85 86 84 82 80 80 79 79 78 77 75 72 69 67 66 65 64 66 68 71 73 74 74 73 71 71 73 75 77 76 75 74 72 72 72 70 68 69 70 69 65 58 52 49 49 47 45 42 41 42 39 35 34 32 29 28
70 71 71 73 75 77 78 75 65 49 36 28 23 19 16 14 13 13 12 11 11 13 17 21 27 34 40 48 57 66 74 81 85 87 86 84 82 82 81 80 79 79 78 75 73 71 69 67 66 65 67 70 73 74 75 74 74 73 72 73 76 79 78 76 74 72 72 72 70 70 71 71 70 67 60 54 51 51 50 46 44 45 42 38 37 35 32 30
70 71 72 75 77 78 78 75 64 48 35 28 22 18 15 13 12 12 11 10 10 11 14 18 24 30 36 43 51 60 69 77 84 86 86 85 84 83 82 81 80 80 79 77 74 73 72 70 69 68 67 69 72 74 75 75 75 75 73 72 74 78 79 77 75 73 72 73 73 71 71 71 71 69 65 61 57 54 52 50 48 46 42 40 40 38 36 34
70 71 74 76 78 78 78 75 64 47 34 27 22 18 15 13 12 11 10 9 9 10 12 16 20 25 32 39 46 54 63 72 81 85 87 87 86 85 84 83 83 82 79 77 76 76 75 73 71 70 69 69 71 74 76 76 77 77 76 75 74 76 78 78 78 77 75 75 74 72 70 70 71 69 68 67 64 59 56 54 52 49 43 39 40 40 39 37
70 72 75 77 79 79 78 75 63 46 33 26 21 18 15 13 13 12 10 9 8 9 11 14 17 21 27 34 41 48 57 66 75 82 86 87 87 86 85 84 84 82 80 80 79 77 76 74 73 72 71 71 72 75 77 77 78 79 79 77 75 74 77 80 81 80 77 76 74 72 71 71 72 72 71 70 69 65 60 57 56 54 48 40 39 41 41 39
71 74 76 78 80 79 78 74 62 45 32 25 20 17 15 14 13 13 11 10 9 8 9 11 14 18 23 29 36 43 51 59 68 76 82 86 88 87 86 85 85 83 82 82 79 78 79 77 75 74 73 73 73 74 76 78 80 81 79 77 76 75 76 79 81 81 79 78 75 73 73 73 72 72 71 71 71 68 65 62 60 59 55 47 42 42 43 41
73 75 77 79 80 80 78 72 60 44 31 24 20 17 15 14 14 14 13 11 10 9 9 10 12 15 19 24 30 37 44 52 61 69 77 83 87 88 88 87 86 85 84 83 81 80 81 78 77 76 76 76 74 74 75 79 80 79 79 80 79 78 77 78 80 81 82 81 77 75 74 72 71 70 70 72 72 71 68 65 64 64 62 55 49 46 44 44
74 76 78 80 81 80 77 71 59 43 31 24 20 17 15 15 15 14 14 14 13 12 12 11 12 13 16 20 25 31 38 46 54 62 70 78 83 87 89 89 89 88 86 85 84 83 82 81 80 79 78 77 76 75 75 77 78 79 80 81 80 79 79 78 78 79 81 81 79 78 77 74 73 73 73 74 75 73 71 69 67 67 65 59 54 50 45 44
75 78 79 81 81 79 76 70 57 42 30 24 20 17 15 15 16 15 16 17 16 15 14 14 13 14 15 17 21 26 32 39 47 55 64 71 78 84 88 90 90 90 89 88 87 86 85 84 83 81 79 79 79 77 76 76 77 79 81 81 80 80 80 78 77 77 79 81 82 82 81 78 77 77 75 75 77 77 75 73 71 70 67 60 55 54 49 46
77 79 80 81 80 79 75 68 56 41 30 23 20 17 15 16 17 17 18 19 19 18 17 16 16 16 16 17 19 22 27 34 41 48 57 66 73 79 85 88 91 91 91 91 89 89 89 86 85 83 81 80 80 79 78 76 77 79 80 80 81 81 80 79 79 78 78 80 83 84 84 82 80 81 78 76 78 79 78 77 75 73 70 63 56 55 54 50
78 80 81 81 80 78 74 66 53 39 29 23 19 16 16 17 18 18 19 21 21 21 21 20 19 19 19 20 20 22 25 29 36 43 50 59 66 74 80 85 89 92 93 92 91 91 90 88 86 84 83 84 83 81 80 78 76 78 79 80 81 82 81 81 81 80 78 79 81 84 85 84 84 84 83 80 80 80 80 79 78 76 74 69 61 57 55 53
79 81 81 80 79 77 72 64 51 38 29 22 17 16 16 17 19 20 20 21 22 22 22 22 22 22 22 22 23 24 25 28 32 38 45 52 60 67 74 81 86 90 92 93 93 93 91 90 88 86 87 87 82 80 80 79 78 79 80 82 82 83 83 83 82 82 81 80 80 82 84 86 86 87 85 83 82 81 81 80 80 79 77 74 67 61 57 55
80 82 81 80 78 76 70 61 48 36 28 22 17 15 15 16 18 21 21 21 22 22 23 23 23 24 24 24 25 26 28 30 32 35 41 48 54 61 68 75 81 86 90 92 93 93 92 91 89 88 89 86 82 82 83 82 82 82 82 82 82 83 83 83 83 83 83 82 81 81 82 84 87 88 87 85 84 82 82 82 81 80 79 77 73 67 62 57
81 82 81 80 78 75 68 58 45 34 27 21 17 16 15 16 18 20 21 21 21 22 22 23 23 24 24 25 26 27 29 31 33 35 39 44 50 57 63 70 76 82 87 90 92 93 93 93 92 90 90 88 86 86 85 85 85 84 82 80 80 82 83 82 83 84 84 84 83 82 81 82 86 89 88 87 85 83 83 83 82 81 79 78 76 73 69 64
82 82 81 80 78 73 66 55 42 32 25 21 18 16 16 16 17 20 20 20 21 21 21 22 23 24 24 25 26 28 30 32 34 36 39 42 47 52 58 65 71 77 83 87 89 91 93 94 93 92 92 91 90 89 88 87 87 85 82 81 81 82 83 83 84 84 84 84 84 84 83 83 85 87 88 89 88 85 84 84 83 82 80 79 78 76 75 72
82 82 81 80 77 71 63 51 40 30 24 21 18 16 16 17 18 19 20 20 20 21 21 22 23 24 24 24 26 28 31 33 35 37 40 42 45 49 54 60 66 72 78 82 85 88 91 93 93 93 94 94 93 93 91 89 88 87 86 84 82 82 83 84 84 84 85 85 85 85 85 85 86 86 87 88 89 87 86 85 84 83 82 81 80 79 78 77
83 82 81 80 76 68 59 48 37 28 23 21 18 16 16 17 18 19 20 20 21 21 21 22 23 23 23 24 24 27 30 34 36 37 40 43 45 46 51 56 61 66 72 77 81 84 87 89 91 93 94 95 95 94 92 91 90 89 88 86 85 83 84 84 84 85 86 86 87 87 87 87 88 87 85 87 88 88 88 87 86 85 84 84 83 81 80 79
82 82 81 80 74 64 54 45 35 26 22 20 17 16 17 18 19 19 20 21 21 22 22 22 22 22 22 22 23 24 27 32 36 38 41 43 45 47 49 53 57 62 67 71 76 79 82 86 91 92 94 95 95 94 92 91 90 88 87 88 86 85 84 85 86 87 87 88 88 89 88 87 87 88 86 85 87 88 88 89 88 87 87 87 85 84 82 81
82 82 81 78 71 60 50 41 33 25 21 18 17 16 17 19 20 20 21 21 22 22 21 22 22 21 21 21 21 22 23 27 33 37 41 44 46 49 50 52 55 60 64 67 71 74 77 84 89 90 91 93 94 94 93 92 90 89 88 88 88 87 86 86 87 88 88 89 89 89 88 86 85 88 89 86 85 87 88 88 89 89 90 89 87 86 84 82
82 82 80 76 67 55 46 38 31 25 20 17 16 16 18 19 20 21 22 22 22 21 21 21 21 21 19 19 19 19 20 23 28 34 39 44 47 50 52 53 53 56 60 65 68 70 72 79 84 85 87 90 92 93 93 93 92 91 90 90 90 90 88 87 88 89 89 89 89 89 89 88 86 87 89 89 87 87 87 88 88 89 91 91 90 89 86 84
82 82 79 71 62 51 42 36 30 24 20 17 15 16 18 19 20 21 22 22 22 21 21 21 21 20 18 17 17 17 17 19 24 30 35 41 46 50 53 54 54 55 57 61 65 67 70 75 79 80 82 85 89 91 92 93 93 92 92 93 93 92 91 89 88 88 89 89 89 89 89 89 88 87 87 89 89 88 88 88 88 89 90 91 93 92 89 87
82 81 76 67 57 47 39 33 29 24 20 17 15 16 17 18 19 21 22 22 22 20 20 20 19 18 17 16 15 15 14 16 19 25 30 36 43 48 53 56 57 57 57 58 61 64 68 73 75 76 78 83 86 88 90 92 92 92 94 96 95 94 93 92 90 89 89 89 90 90 88 87 88 89 88 89 90 90 90 89 89 89 90 91 93 93 92 90
Wind_Direction
305 303 302 301 299 297 294 291 289 286 284 283 282 281 280 277 274 268 261 256 251 246 242 239 236 231 228 226 224 224 223 222 220 218 217 215 214 215 214 212 211 210 209 209 207 205 203 201 198 196 194 193 192 192 194 197 198 197 196 193 190 200 211 211 211 207 197 192 192 204 220 253 333 337 319 338 43 48 45 41 33 28 25 26 31 33 30 35
303 301 300 299 298 297 296 294 291 288 284 281 279 278 277 276 274 270 265 259 254 249 244 240 238 234 230 226 224 223 222 222 221 220 217 214 214 214 214 212 211 210 208 208 207 205 203 201 198 197 195 194 193 194 195 196 197 197 202 204 196 201 208 207 213 210 200 196 194 200 202 225 257 280 311 357 56 46 46 41 33 27 23 24 29 31 30 34
302 300 299 298 297 295 294 292 291 288 285 282 279 276 274 272 271 270 267 262 256 252 247 242 238 235 232 228 226 223 222 221 221 221 218 215 214 213 213 212 210 209 208 208 208 206 203 201 199 197 196 195 194 195 195 196 197 197 206 212 207 208 210 207 213 213 205 199 197 199 199 219 228 279 295 90 61 44 43 35 30 23 21 25 26 29 30 33
305 303 301 300 298 296 295 292 290 288 285 282 279 276 272 269 268 267 265 263 258 253 249 245 240 236 234 231 227 224 222 220 220 221 219 216 215 213 213 212 210 209 208 208 208 206 204 202 200 198 197 196 195 196 197 197 196 196 203 210 211 213 217 215 214 214 211 204 202 203 208 223 226 287 275 125 57 35 30 18 25 21 20 26 25 26 30 34
308 306 305 303 301 299 297 295 292 289 285 282 278 276 273 269 266 263 262 261 258 255 250 246 243 237 234 232 229 226 223 221 221 221 219 217 216 213 213 212 210 209 209 207 207 206 203 202 201 198 197 196 196 196 198 199 196 197 199 201 205 207 210 212 213 214 212 206 208 209 215 224 224 274 260 108 19 8 8 359 20 22 20 25 25 25 29 34
309 307 305 303 301 299 298 296 294 291 288 284 279 275 272 269 266 263 260 257 256 254 251 247 244 240 235 232 230 228 225 222 222 221 218 218 217 214 213 213 211 209 209 207 206 206 204 203 202 200 198 197 197 197 200 201 199 201 204 205 207 208 208 210 212 212 211 208 209 212 216 224 223 244 264 304 329 342 343 344 18 24 20 23 25 24 29 35
306 304 302 300 298 297 295 294 292 290 288 286 282 278 273 269 265 263 260 256 254 252 250 248 244 241 237 233 230 228 226 223 223 222 219 218 217 215 214 214 212 210 209 207 205 206 204 203 203 201 198 198 198 198 201 202 201 204 206 209 210 210 212 211 209 208 210 212 214 217 220 224 227 232 255 281 300 323 324 329 17 28 20 21 26 25 28 34
303 301 299 298 296 295 294 292 290 288 286 284 282 280 276 271 265 261 259 257 253 250 248 247 244 241 238 234 231 227 226 225 224 222 220 219 217 216 215 214 213 210 209 207 205 205 205 204 203 201 199 199 200 200 202 203 203 205 206 210 210 210 213 211 206 206 209 215 219 224 225 225 232 237 244 267 285 306 302 313 13 31 21 19 27 26 28 33
302 301 299 299 298 296 295 293 291 288 286 283 281 279 277 273 268 262 258 255 253 250 247 245 243 241 238 234 232 228 226 225 225 223 221 220 218 216 215 214 213 211 209 208 205 204 204 205 204 203 201 200 200 201 202 203 205 207 207 210 211 210 212 210 206 208 211 216 222 227 229 228 230 236 241 265 278 273 272 303 10 32 24 18 26 28 27 32
304 303 303 302 301 299 297 295 292 289 285 283 280 278 276 273 270 265 259 254 251 249 247 244 242 240 238 234 231 230 228 225 224 224 222 221 219 217 215 215 214 211 209 208 206 204 204 205 205 203 203 201 201 201 203 203 205 207 208 211 211 210 212 211 209 212 215 217 221 226 230 229 228 232 237 259 262 235 249 296 359 26 27 17 23 29 28 32
308 307 306 306 305 303 300 296 293 289 286 283 280 277 274 272 269 265 260 255 250 247 246 243 241 239 237 234 231 230 229 226 224 224 223 222 220 218 216 214 214 212 209 208 207 205 204 206 206 204 204 203 202 202 203 204 204 206 208 211 211 210 211 213 213 216 219 221 221 224 231 230 226 228 232 246 240 219 241 285 340 15 30 14 18 30 30 32
312 311 310 309 307 306 303 299 295 291 288 284 281 277 273 270 267 264 260 256 251 246 244 243 240 238 236 234 231 229 229 227 224 223 223 222 221 220 217 215 214 212 209 208 207 206 205 207 206 204 205 204 203 203 203 204 204 206 208 211 212 211 211 214 219 219 221 224 222 219 224 227 222 219 225 235 229 221 237 253 303 358 33 14 14 31 32 34
315 314 312 311 309 307 305 302 298 294 290 286 283 279 273 268 264 262 259 256 252 247 243 241 240 237 234 232 231 229 228 228 225 223 222 222 221 220 219 216 214 213 210 207 207 207 206 207 206 206 206 204 204 205 204 204 204 205 207 210 211 211 210 213 220 220 218 219 219 216 218 222 217 210 213 222 223 222 234 232 245 312 47 16 13 34 36 37
317 315 313 312 310 308 305 303 300 296 292 288 284 279 274 268 262 259 257 254 251 247 243 240 238 236 233 230 229 228 228 227 226 224 221 222 222 221 219 217 215 213 211 208 207 208 208 206 205 206 206 204 204 205 205 204 204 205 205 208 210 209 210 213 217 216 211 209 208 212 218 220 216 207 202 205 212 217 227 232 244 247 157 138 26 47 41 41
318 316 315 313 311 309 307 304 302 299 295 291 287 280 274 267 261 257 254 252 250 247 243 239 236 235 232 229 227 227 227 226 225 224 222 221 221 221 220 218 216 214 212 209 209 210 209 208 206 207 207 205 204 205 205 204 204 204 203 207 208 205 208 213 217 218 214 212 210 212 219 224 222 212 200 199 209 219 224 227 241 237 186 175 125 68 52 44
319 318 316 314 312 311 309 307 305 302 299 295 290 283 274 266 259 254 251 249 247 245 242 238 235 233 230 227 226 225 226 225 224 224 223 221 220 221 220 218 218 215 213 210 210 211 210 209 207 208 208 205 204 205 205 204 203 202 200 205 208 206 208 210 214 217 215 214 213 214 218 222 225 217 205 202 204 221 227 221 229 226 188 180 160 92 66 49
321 320 318 316 315 313 311 310 308 306 303 299 293 286 276 266 258 252 248 245 243 242 240 237 234 231 228 226 224 223 224 224 223 222 222 221 220 219 219 218 218 216 214 211 211 211 210 209 208 209 209 206 204 205 205 204 204 202 199 203 207 208 210 211 213 216 215 214 212 215 219 218 223 222 213 206 200 215 226 216 217 212 186 186 169 116 80 55
323 322 319 318 316 315 314 313 311 309 307 303 297 289 279 267 257 250 245 242 240 238 237 234 232 230 227 224 222 221 222 223 222 221 221 221 220 218 218 218 218 217 215 212 210 212 211 209 209 209 209 208 206 205 205 205 203 202 200 202 206 206 208 210 214 217 217 217 216 218 221 220 224 225 216 208 202 209 221 213 212 203 186 189 174 146 117 66
325 323 321 320 319 318 317 316 314 313 310 307 301 293 282 270 258 249 242 238 236 234 233 232 229 227 225 223 221 219 220 221 221 220 219 219 220 218 216 217 217 216 215 213 211 211 212 210 209 209 209 209 208 206 206 206 203 202 201 202 204 204 207 208 211 215 215 215 215 219 224 223 225 225 217 211 206 206 215 216 217 209 193 192 183 175 190 129
326 324 323 323 322 322 320 319 318 317 315 311 305 296 284 272 260 250 242 236 232 230 230 229 227 225 224 222 220 218 218 219 220 220 219 218 218 218 216 216 217 216 215 214 212 211 212 210 209 209 209 209 208 206 207 207 206 203 202 203 202 202 205 206 207 212 214 213 214 219 226 226 226 228 223 217 211 207 214 221 220 213 200 196 195 193 201 200
327 326 326 326 326 325 324 323 323 321 320 315 308 298 287 275 264 253 243 236 231 228 227 226 225 223 222 221 220 218 217 218 219 219 218 217 217 218 217 215 216 217 215 214 213 212 211 211 211 210 210 209 208 207 207 207 207 206 204 203 204 203 204 205 204 206 210 209 208 213 222 224 224 227 224 219 216 211 213 222 219 209 200 199 201 198 202 202
329 328 329 329 329 328 328 328 327 326 324 318 310 301 291 280 267 256 246 238 231 227 224 223 223 221 220 220 219 218 217 217 218 219 218 217 216 216 216 216 215 216 216 214 213 213 212 211 212 211 211 210 208 208 207 207 208 207 206 204 205 206 206 207 206 207 208 205 202 207 215 220 221 225 227 223 219 213 214 221 217 209 203 202 203 199 201 207
330 331 332 332 332 332 332 332 331 330 326 319 312 304 295 284 272 260 249 241 233 228 224 222 221 220 219 218 218 218 218 217 218 218 218 216 215 214 215 215 214 214 215 215 214 213 212 211 211 211 211 210 209 208 207 207 208 208 207 205 205 207 208 209 209 210 209 206 203 205 210 219 221 221 225 223 218 214 214 219 217 213 214 214 209 202 203 214
332 333 334 335 335 335 335 336 335 333 328 320 313 306 298 288 277 264 253 243 235 229 225 221 220 219 218 217 217 217 217 218 218 218 217 216 214 214 214 214 214 213 213 214 214 214 213 212 211 211 211 211 209 209 208 208 208 208 207 206 205 206 208 209 210 210 210 207 204 202 207 216 219 217 219 221 220 218 217 217 217 217 221 223 215 205 204 214
335 336 337 337 337 337 338 339 338 335 329 321 315 308 301 292 282 269 256 246 237 230 225 222 219 218 217 217 216 216 217 217 217 217 217 216 214 214 213 214 214 214 212 213 215 214 213 213 212 211 211 211 210 209 209 209 209 208 207 207 206 207 207 208 209 210 210 210 204 201 204 211 216 218 220 224 225 224 222 218 217 219 222 224 219 211 208 212
337 338 339 339 339 340 341 341 340 336 329 322 316 309 303 295 285 274 260 248 239 231 226 222 219 217 216 216 215 215 215 216 216 216 216 215 214 213 213 213 214 214 213 213 215 215 213 213 214 212 211 212 211 210 209 209 210 209 208 208 207 207 207 208 209 208 209 211 206 203 205 207 215 220 220 224 224 221 223 220 218 219 221 223 222 219 217 216
338 340 340 340 341 342 343 343 341 337 329 322 316 310 304 297 288 277 265 251 240 232 226 222 219 217 215 214 214 214 214 215 215 214 214 214 213 213 212 213 213 214 214 214 214 214 214 213 213 213 212 212 212 211 210 209 210 210 209 209 208 207 207 207 207 207 208 210 207 205 203 201 211 217 214 217 219 215 218 219 218 218 218 222 224 225 225 222
340 341 341 342 342 343 344 344 342 337 329 323 316 310 305 298 290 280 268 255 243 233 227 222 219 216 214 213 213 213 213 213 213 213 212 212 212 212 212 212 212 213 215 214 213 213 214 214 213 213 213 212 212 212 212 211 210 210 210 210 209 208 207 206 206 205 206 210 208 205 202 198 205 213 212 213 215 214 217 220 220 218 217 219 223 227 230 229
341 342 342 343 343 344 345 345 343 337 330 323 317 310 304 298 292 283 270 259 245 235 228 222 219 216 214 213 211 211 211 211 211 211 211 211 211 212 211 211 212 213 215 215 213 213 216 215 214 214 214 213 213 213 213 213 210 210 211 211 210 210 209 207 206 205 204 208 209 206 203 200 200 208 214 217 217 217 221 224 224 221 218 217 219 225 231 230
342 343 343 344 344 345 346 346 343 337 330 323 316 309 303 296 291 285 273 260 247 237 229 223 219 216 214 212 211 210 209 209 209 209 210 210 210 211 211 211 212 213 214 215 213 214 216 216 215 215 214 215 214 214 215 214 212 211 211 211 211 211 210 209 208 207 207 208 209 208 205 203 200 203 210 218 221 221 221 223 223 222 220 216 214 220 230 228
343 343 344 345 346 346 346 346 343 337 329 322 315 308 301 293 288 284 275 265 251 239 230 224 220 216 214 213 211 209 209 208 208 208 209 209 210 210 211 211 211 212 213 213 213 214 215 214 214 215 215 215 215 215 215 215 214 213 211 211 212 212 211 211 209 209 209 210 210 209 208 207 205 205 207 213 219 220 217 218 221 221 219 216 212 214 224 227
343 344 345 346 346 346 346 346 343 337 328 321 313 306 299 289 284 281 275 267 254 241 232 224 220 217 214 213 211 210 209 208 208 208 209 209 209 209 210 211 211 212 213 212 212 213 214 213 213 213 214 215 215 215 215 215 215 215 212 211 213 213 212 212 211 210 211 212 212 211 211 210 210 210 210 209 212 215 215 217 220 221 217 213 211 210 217 224
344 344 346 347 347 346 346 346 343 337 328 320 311 303 296 287 279 274 273 269 255 242 233 226 221 217 214 213 212 211 210 209 209 209 209 210 210 210 210 210 211 212 213 212 212 213 213 212 212 212 213 215 215 214 215 215 215 215 214 212 213 214 213 212 212 212 212 214 215 213 212 212 212 213 212 211 211 211 213 215 218 219 216 212 210 209 213 221
344 345 347 347 347 346 346 346 343 337 328 319 309 300 293 283 274 267 263 262 256 245 234 228 223 218 215 213 212 211 210 210 210 210 210 210 210 210 210 211 212 212 213 213 213 214 214 213 212 212 211 213 214 214 214 214 215 215 214 213 212 213 214 213 212 212 212 214 215 215 215 214 214 214 213 212 213 212 211 212 216 218 215 212 212 212 212 218
345 346 347 347 346 346 346 345 343 337 328 318 306 295 287 279 271 263 254 249 249 244 234 228 223 220 217 214 212 211 210 210 211 211 211 211 211 211 211 211 212 212 212 213 213 214 215 214 214 213 212 212 213 214 213 214 215 215 215 214 213 213 214 214 213 213 213 213 214 216 216 216 215 214 214 213 215 217 213 211 213 217 215 211 214 216 215 217
345 346 346 346 345 345 345 345 342 337 328 316 303 290 280 272 265 259 252 244 238 234 230 225 222 220 218 216 214 212 211 210 211 211 212 212 212 212 212 212 213 213 213 214 213 214 215 214 214 214 213 213 214 214 213 214 215 215 215 215 214 214 214 214 214 213 214 213 213 214 216 218 217 216 217 216 216 218 218 213 211 215 217 215 216 216 215 216
346 346 345 345 344 344 344 344 342 337 328 315 300 286 273 264 258 254 249 243 234 227 224 219 219 218 218 217 215 213 212 211 211 211 212 213 213 213 213 213 214 214 214 214 213 215 216 215 215 216 215 214 214 214 214 215 214 215 215 215 214 214 215 215 214 214 215 215 213 214 216 219 219 216 219 219 217 218 220 217 214 216 220 222 221 217 213 214
345 345 344 344 343 343 344 344 342 336 327 315 299 285 270 258 253 250 245 241 234 226 222 216 215 216 216 217 216 214 213 212 212 212 212 213 213 214 214 214 214 214 214 214 214 215 216 215 215 216 216 215 215 214 214 215 215 215 216 216 215 215 215 215 215 214 215 216 215 215 215 218 219 217 218 220 219 218 220 220 218 219 223 225 226 223 215 214
345 344 343 343 343 343 343 343 341 335 327 315 299 286 270 254 249 246 242 241 236 230 226 221 218 217 216 217 217 216 215 213 213 212 212 213 213 213 214 214 215 215 215 215 214 215 216 215 216 216 216 216 216 215 215 215 215 215 216 216 216 217 216 216 216 215 215 215 216 216 215 217 219 218 218 220 220 220 220 221 220 221 224 225 226 227 221 216
343 343 342 342 342 342 342 342 340 334 326 315 300 286 270 253 247 244 242 240 238 235 233 229 226 224 222 221 220 219 218 216 214 213 213 213 213 213 214 214 215 215 215 215 215 215 216 215 216 216 217 218 217 216 215 215 216 216 216 216 216 217 217 217 217 216 216 215 216 217 217 217 219 219 218 219 220 221 221 222 221 222 225 224 222 225 225 220
342 341 341 341 341 341 342 342 338 332 324 315 301 285 269 253 246 244 243 241 239 238 237 236 235 233 231 229 225 223 222 220 217 215 214 214 214 214 213 214 215 215 215 216 215 216 216 216 216 216 217 218 217 217 216 215 215 217 217 216 217 217 217 217 217 217 217 217 216 217 218 218 220 221 220 219 220 222 222 223 222 222 224 224 220 219 222 223
340 340 340 340 340 340 341 341 337 330 323 314 300 282 266 252 244 242 244 243 242 241 241 241 240 240 238 236 233 230 227 225 222 219 216 215 214 214 214 214 214 215 216 216 216 216 216 216 216 216 218 219 218 218 218 216 216 217 217 216 216 217 217 217 217 216 217 218 217 218 219 219 221 222 221 221 221 222 223 224 224 223 223 224 221 217 217 221
339 339 339 339 339 339 340 340 335 328 321 312 297 278 264 253 244 242 243 245 245 245 244 244 245 244 243 242 240 237 232 228 226 223 220 217 215 215 215 214 214 215 215 216 217 217 217 217 216 217 218 219 218 219 219 217 217 217 217 217 217 217 217 217 218 217 217 218 218 218 219 220 222 223 222 221 221 222 224 225 225 225 224 224 224 220 215 216
338 338 338 338 338 339 339 338 334 326 319 309 293 276 262 250 243 242 243 244 245 246 245 246 247 247 247 246 245 242 238 233 228 226 224 221 218 215 215 215 215 215 215 216 216 217 217 217 217 217 218 219 218 219 220 219 218 218 218 217 217 218 218 218 219 219 219 219 218 218 219 220 222 224 223 222 222 222 224 225 225 226 226 225 225 223 218 215
337 337 337 337 337 338 338 337 332 324 316 306 291 273 258 246 239 240 242 243 245 246 246 247 248 249 249 249 247 245 242 238 231 227 225 224 221 218 216 216 216 216 216 216 217 217 218 218 218 217 218 218 218 219 220 220 219 219 218 218 217 218 218 218 219 219 219 220 220 220 219 220 222 224 224 224 223 223 224 225 226 226 227 227 226 225 222 219
336 336 336 336 336 337 337 335 331 323 314 305 291 273 257 243 236 239 243 245 246 247 247 248 249 250 250 249 247 245 243 241 235 229 226 225 223 221 219 217 216 217 217 217 217 217 218 219 219 219 219 219 219 219 219 219 219 219 218 218 217 218 218 218 219 219 220 220 220 221 220 221 223 224 224 224 224 224 225 226 226 227 228 228 228 226 224 222
336 335 335 335 335 336 336 334 330 322 313 304 292 274 258 245 237 239 244 246 248 248 248 248 250 251 252 250 248 245 242 240 238 232 227 225 224 222 221 219 218 218 218 218 218 218 219 219 219 220 221 221 220 220 220 220 220 219 219 218 218 217 218 218 218 219 220 220 220 221 221 222 223 224 224 224 225 225 225 226 227 227 228 228 228 228 226 225
335 334 334 334 335 335 334 333 329 321 311 302 290 274 259 248 240 238 242 246 249 249 249 250 251 252 253 253 251 248 244 240 237 233 230 226 223 222 222 220 219 218 218 218 219 219 219 220 220 220 222 222 222 222 222 222 222 221 220 220 219 218 217 218 218 219 220 221 221 221 221 222 224 224 225 225 224 225 225 226 226 227 228 228 229 228 228 226
334 333 333 333 334 335 333 331 328 320 309 299 287 271 259 250 242 237 239 244 249 251 252 252 253 254 256 257 255 252 248 242 236 233 230 227 223 221 222 221 220 219 218 218 218 218 219 221 220 220 222 223 223 223 223 223 224 223 222 222 221 220 219 218 219 219 220 221 221 222 222 223 224 225 225 225 224 225 225 226 226 227 228 229 229 229 229 228
333 332 331 332 333 334 332 329 326 319 309 298 283 268 257 250 243 239 238 241 246 251 253 255 256 255 257 261 262 259 254 245 237 232 229 226 224 222 221 221 221 220 219 219 218 217 219 221 221 221 222 223 224 224 224 224 224 223 223 223 223 222 221 220 220 220 220 221 222 222 223 223 225 226 226 226 225 225 226 226 227 227 228 229 229 229 229 229
332 331 330 331 332 333 331 327 324 317 309 298 281 265 257 251 245 241 238 239 243 248 252 256 259 259 260 264 267 267 261 249 238 231 228 225 223 222 221 220 220 220 220 220 219 217 218 220 220 220 222 223 223 224 224 224 224 223 223 223 223 223 222 221 220 221 221 221 222 223 223 224 225 227 228 228 227 226 226 227 227 228 228 229 229 229 229 229
331 330 330 330 331 332 330 326 322 315 308 298 281 265 257 252 247 243 240 239 241 244 250 256 260 263 265 269 272 273 269 256 239 231 228 225 223 221 220 220 219 219 220 220 219 218 218 220 219 218 220 222 223 223 223 224 224 223 223 223 223 223 223 222 221 221 221 222 222 222 223 224 225 227 228 228 228 227 227 227 228 228 229 229 230 230 229 229